This is the latest recevied weather packets stored in our database for station/object KY4GW. If no packets are shown the sender has not sent any weather packets the latest 10 day(s).
| Time | Temp. | Humidity | Pressure | Rain* | Wind** | Luminosity | Snow |
|---|---|---|---|---|---|---|---|
| 1777785143 | 3.33° C | 84% | 1022.1 hPa | 0 mm | - | 0 W/m² | - |
| 1777784838 | 3.33° C | 82% | 1022.1 hPa | 0 mm | - | 0 W/m² | - |
| 1777784535 | 3.33° C | 82% | 1022.1 hPa | 0 mm | - | 0 W/m² | - |
| 1777784233 | 3.89° C | 80% | 1022.1 hPa | 0 mm | - | 0 W/m² | - |
| 1777783930 | 4.44° C | 80% | 1022.1 hPa | 0 mm | - | 0 W/m² | - |
| 1777783627 | 4.44° C | 79% | 1022.1 hPa | 0 mm | - | 0 W/m² | - |
| 1777783324 | 5° C | 78% | 1022.1 hPa | 0 mm | - | 0 W/m² | - |
| 1777783020 | 5.56° C | 69% | 1022.1 hPa | 0 mm | - | 0 W/m² | - |
| 1777782718 | 5.56° C | 67% | 1022.1 hPa | 0 mm | - | 0 W/m² | - |
| 1777782414 | 5.56° C | 67% | 1022.1 hPa | 0 mm | - | 0 W/m² | - |
| 1777782110 | 5.56° C | 67% | 1022.1 hPa | 0 mm | - | 0 W/m² | - |
| 1777781806 | 6.11° C | 67% | 1022.1 hPa | 0 mm | - | 0 W/m² | - |
| 1777781505 | 6.11° C | 66% | 1022.1 hPa | 0 mm | - | 0 W/m² | - |
| 1777781202 | 6.11° C | 65% | 1022.1 hPa | 0 mm | - | 0 W/m² | - |
| 1777780900 | 6.67° C | 64% | 1022.1 hPa | 0 mm | - | 0 W/m² | - |
| 1777780595 | 6.67° C | 64% | 1022.1 hPa | 0 mm | - | 0 W/m² | - |
| 1777780294 | 7.22° C | 62% | 1022.1 hPa | 0 mm | - | 0 W/m² | - |
| 1777779991 | 7.22° C | 63% | 1022.1 hPa | 0 mm | - | 0 W/m² | - |
| 1777779688 | 7.22° C | 63% | 1022.1 hPa | 0 mm | - | 0 W/m² | - |
| 1777779385 | 6.67° C | 62% | 1022.1 hPa | 0 mm | - | 0 W/m² | - |
| 1777779082 | 6.67° C | 64% | 1022.1 hPa | 0 mm | - | 0 W/m² | - |
| 1777778781 | 6.67° C | 65% | 1021.8 hPa | 0 mm | - | 0 W/m² | - |
| 1777778479 | 6.11° C | 66% | 1021.8 hPa | 0 mm | - | 0 W/m² | - |
| 1777778176 | 5.56° C | 68% | 1021.8 hPa | 0 mm | - | 0 W/m² | - |
| 1777777873 | 5.56° C | 70% | 1022.1 hPa | 0 mm | - | 0 W/m² | - |
* Rain latest hour (hover to see other rain measurements)
** Current wind speed in m/s (hover to see current wind gust speed)